Miscellaneous Local Product
Issued by NWS North Platte, NE

Home | Current Version | Previous Version | Graphics & Text | Print | Product List | Glossary On
Versions: 1 2 3 4 5 6 7 8 9 10 11 12 13 14 15 16 17 18 19 20 21 22 23 24 25 26 27 28 29 30 31 32 33 34 35 36 37 38 39 40 41 42 43 44 45 46 47 48 49 50
000
AXUS43 KLBF 241410
MISLBF


WESTERN AND NORTH CENTRAL NEBRASKA HOURLY WEATHER ROUNDUP
NATIONAL WEATHER SERVICE NORTH PLATTE NE
800 AM CST WED DEC 24 2014

***STATIONS NOT REPORTING VARIABLES SUCH AS SKY/WEATHER OR
PRESSURE ARE PROVIDED BY THE NEBRASKA DEPARTMENT OF
ROADS...RAWS...AND APRS NETWORKS...AND ARE NOT UNDER
NATIONAL WEATHER SERVICE QUALITY CONTROL***

...OBSERVATIONS IN AND NEAR THE EASTERN PANHANDLE OF NEBRASKA...

CITY           SKY/WX    TMP DP  RH WIND       PRES   REMARKS
PINE RIDGE     PTCLDY    -4  -9  79 N3        29.83F
CHADRON        CLEAR     14   8  77 SW9       29.84F WCI   2
ALLIANCE       PTCLDY     6   1  80 W6        29.85F WCI  -4
SIDNEY         PTCLDY    15   7  70 W7        29.90S WCI   5
WHITECLAY        N/A      2  -3  79 SE5         N/A  WCI  -8
CRESCENT LAKE    N/A     12   7  81 CALM        N/A
LISCO            N/A     13   8  78 W5          N/A  WCI   6
BIG SPRINGS      N/A     12   9  87 W5          N/A  WCI   4
$$

...OBSERVATIONS IN NORTH CENTRAL NEBRASKA...

CITY           SKY/WX    TMP DP  RH WIND       PRES   REMARKS
VALENTINE      PTCLDY     7   4  87 W5        29.88F WCI  -2
THEDFORD       PTCLDY    12  10  89 W6        29.90F WCI   3
AINSWORTH      PTCLDY    11   8  89 SW5       29.89S WCI   3
O`NEILL        CLOUDY    26  26  97 W10       29.91S WCI  16
ORD            CLOUDY    25  22  88 W8        29.92S WCI  16
BROKEN BOW     CLEAR     20  15  81 NW8       29.91F WCI  10
BROWNLEE         N/A     13  10  87 W5          N/A  WCI   5
SPRINGVIEW       N/A     14  11  88 CALM        N/A
BREWSTER         N/A     18  17  93 W5          N/A  WCI  11
ROSE             N/A     22  22 100 CALM        N/A
SARGENT          N/A     15  13  92 CALM        N/A
COMSTOCK         N/A     25  21  86 W5          N/A  WCI  19
CHAMBERS         N/A     24  22  92 W3G12       N/A
EWING            N/A     24  23  96 CALM        N/A
$$

...OBSERVATIONS IN SOUTHWEST NEBRASKA AND FAR NORTHEAST COLORADO...

CITY           SKY/WX    TMP DP  RH WIND       PRES   REMARKS
WRAY           FAIR      10   7  86 W6        29.96S WCI   1
HOLYOKE        FAIR      18  12  79 W9        29.92F WCI   6
IMPERIAL       PTCLDY    17   9  70 W13       29.94S WCI   4
OGALLALA       PTCLDY    10   8  91 W3        29.92F
NORTH PLATTE   CLEAR     14  11  87 NW9       29.93F WCI   2
MCCOOK         CLEAR     15  12  88 W7        29.96F WCI   5
LEXINGTON      CLEAR     21  18  86 NW10      29.93F WCI  10
PAXTON           N/A     14  11  87 SW3         N/A
BRADY            N/A     16  12  84 CALM        N/A
GOTHENBURG       N/A     16  12  85 W5          N/A  WCI   9
CALLAWAY         N/A     16  14  90 NW6         N/A  WCI   8
$$

...NORTH PLATTE AREA...

CITY           SKY/WX    TMP DP  RH WIND       PRES   REMARKS
AIRPORT        CLEAR     14  11  87 NW9       29.93F WCI   2
DOWNTOWN         N/A     16  13  86 NW3         N/A
$$

...SOME WEATHER OBSERVATIONS FROM AROUND THE REGION...

CITY           SKY/WX    TMP DP  RH WIND       PRES   REMARKS
DENVER         PTCLDY    24   5  44 S13       29.88F WCI  12
LARAMIE        MOCLDY    12   5  73 SW13      29.92S WCI  -3
CHEYENNE       PTCLDY    27  11  51 W18G25    29.84F WCI  14
SCOTTSBLUFF    CLEAR      9   7  92 CALM      29.88F
RAPID CITY     PTCLDY    13  10  88 CALM      29.78F
PIERRE         PTCLDY    13  11  92 SW5       29.84F WCI   5
WINNER         FAIR      20  16  84 SW7       29.88F WCI  11
SIOUX FALLS    FRZ DRZL  28  27  96 NW12      29.87S WCI  18
OMAHA          CLOUDY    33  31  92 NW10      29.88S WCI  25
GRAND ISLAND   CLOUDY    27  22  81 NW13      29.94S WCI  16
KANSAS CITY    FLURRIES  34  32  92 NW14      29.82R WCI  25
WICHITA        CLOUDY    34  27  75 NW17      29.95R WCI  23
HAYS           CLEAR     27  14  59 NW17      29.98R WCI  14
LIBERAL        CLEAR     23  16  74 W10       30.06S WCI  12
GOODLAND       PTCLDY    15   9  76 W13       29.96F WCI   1
$$



USA.gov is the U.S. government's official web portal to all federal, state and local government web resources and services.